RESOURCESAT-2A (41877 NORAD) Tracking and Keplerian Element Data

This shows tracking and keplerian element data for the satellite.

Feedback or suggestion? Click here.




ElementValue
Catalog41877
NameRESOURCESAT-2A
Epoch Orbit10039
Epoch Day317.75388138
Epoch Year2018
RAAN30.0374
Inclination98.6597
Eccentricity6.78E-05
Argument of Perigee105.7232
Mean Anonmoly254.4027
Mean Motion14.2165119
Decay Rate-2.37E-06
L11 41877U 16074A 18317.75388138 -.00000237 00000-0 -88395-4 0 9999
L22 41877 98.6597 30.0374 0000678 105.7232 254.4027 14.21651190100398

Live tracking and technical data element details for RESOURCESAT-2A (NORAD 41877). RESOURCESAT-2A can be tracked NOW for your location showing map with azimuth and elevation plus other details from your city location.

Track the satellite on the map from your city or location and see movement details for azimuth, elevation, latitude, longitude, range, height, and movement on the map or in text.







IsCatalogInMostPopularTable: catalog: 41877, numindb: 111
Update: records affected: 1



GetName: 41877 RESOURCESAT-2A

Hit Count: updated at: Wed, 14 Nov 2018 10:49:52 GMT